Location: Buchdorf
(48.7842°N, 10.8275°E)
Time: 12:34:19
(UTC+00:00)

X-37B - Pass Details

Date: 12 March 2021
Orbit: 380 x 394 km, 45.0° (Epoch: 07 April)

Event Time Altitude Azimuth Distance (km) Brightness Sun altitude
Rises 18:18:02 0° 210° (SSW) 2,262 4.8 -10.8°
Reaches altitude 10° 18:20:49 10° 183° (S) 1,415 3.4 -11.2°
Maximum altitude 18:22:32 14° 151° (SSE) 1,218 2.7 -11.5°
Enters shadow 18:23:06 13° 139° (SE) 1,243 2.7 -11.6°
